• In Österreich
  • Länderverzeichnis
  • Für 7 Tage
  • Wassertemperatur
  • Satellitenkarten
  • Wetterkarte
  • News
  • Widgets
  • user-avatar
    Anmelden

    Stündliche Wetter Borowec

    Heute, 23 Mai, Mittwoch

    Zeit Temperatur Niederschläge Wind Luftdruck Luftfeuchtigkeit
    00:00 +15°C° 0 mm 1 m/S 713 mmHg 89%
    01:00 +15°C° 0 mm 1 m/S 713 mmHg 90%
    02:00 +14°C° 0 mm 1 m/S 713 mmHg 92%
    03:00 +14°C° 0 mm 1 m/S 713 mmHg 92%
    04:00 +14°C° 0 mm 1 m/S 713 mmHg 93%
    05:00 +13°C° 0 mm 1 m/S 713 mmHg 93%
    06:00 +15°C° 0 mm 1 m/S 713 mmHg 87%
    07:00 +18°C° 0 mm 1 m/S 713 mmHg 81%
    08:00 +20°C° 0 mm 1 m/S 714 mmHg 74%
    09:00 +22°C° 0 mm 1 m/S 714 mmHg 68%
    10:00 +24°C° 0 mm 1 m/S 714 mmHg 61%
    11:00 +25°C° 0 mm 2 m/S 714 mmHg 54%
    12:00 +25°C° 1,1 mm 2 m/S 714 mmHg 56%
    13:00 +25°C° 1,1 mm 2 m/S 713 mmHg 59%
    14:00 +25°C° 1,1 mm 2 m/S 713 mmHg 61%
    15:00 +24°C° 1,1 mm 2 m/S 713 mmHg 66%
    16:00 +23°C° 1,1 mm 2 m/S 712 mmHg 71%
    17:00 +21°C° 1,1 mm 2 m/S 712 mmHg 76%
    18:00 +20°C° 0,2 mm 2 m/S 711 mmHg 80%
    19:00 +20°C° 0,2 mm 1 m/S 711 mmHg 84%
    20:00 +18°C° 0,2 mm 1 m/S 711 mmHg 88%
    21:00 +16°C° 0,2 mm 1 m/S 711 mmHg 89%
    22:00 +16°C° 0,2 mm 1 m/S 711 mmHg 90%
    23:00 +15°C° 0,2 mm 1 m/S 711 mmHg 91%

    Morgen, 24 Mai, Donnerstag

    Zeit Temperatur Niederschläge Wind Luftdruck Luftfeuchtigkeit
    00:00 +15°C° 0 mm 1 m/S 711 mmHg 91%
    01:00 +14°C° 0 mm 1 m/S 711 mmHg 91%
    02:00 +14°C° 0 mm 1 m/S 711 mmHg 91%
    03:00 +14°C° 0 mm 1 m/S 711 mmHg 92%
    04:00 +14°C° 0 mm 1 m/S 710 mmHg 92%
    05:00 +13°C° 0 mm 1 m/S 710 mmHg 93%
    06:00 +15°C° 0,1 mm 1 m/S 711 mmHg 88%
    07:00 +18°C° 0,1 mm 1 m/S 711 mmHg 83%
    08:00 +19°C° 0,1 mm 1 m/S 711 mmHg 78%
    09:00 +21°C° 0,3 mm 1 m/S 711 mmHg 74%
    10:00 +21°C° 0,3 mm 2 m/S 712 mmHg 69%
    11:00 +23°C° 0,3 mm 2 m/S 712 mmHg 65%
    12:00 +22°C° 0,7 mm 3 m/S 711 mmHg 65%
    13:00 +22°C° 0,7 mm 3 m/S 711 mmHg 65%
    14:00 +24°C° 0,7 mm 3 m/S 711 mmHg 65%
    15:00 +22°C° 0,8 mm 3 m/S 710 mmHg 66%
    16:00 +22°C° 0,8 mm 3 m/S 710 mmHg 68%
    17:00 +22°C° 0,8 mm 3 m/S 710 mmHg 69%
    18:00 +20°C° 0,2 mm 2 m/S 710 mmHg 75%
    19:00 +18°C° 0,2 mm 2 m/S 710 mmHg 80%
    20:00 +16°C° 0,2 mm 1 m/S 710 mmHg 86%
    21:00 +16°C° 0 mm 1 m/S 710 mmHg 87%
    22:00 +15°C° 0 mm 1 m/S 710 mmHg 88%
    23:00 +14°C° 0 mm 1 m/S 710 mmHg 89%

    übermorgen, 25 Mai, Freitag

    Zeit Temperatur Niederschläge Wind Luftdruck Luftfeuchtigkeit
    00:00 +14°C° 0 mm 1 m/S 710 mmHg 89%
    01:00 +14°C° 0 mm 1 m/S 710 mmHg 89%
    02:00 +13°C° 0 mm 1 m/S 710 mmHg 88%
    03:00 +13°C° 0 mm 1 m/S 710 mmHg 89%
    04:00 +13°C° 0 mm 1 m/S 710 mmHg 89%
    05:00 +12°C° 0 mm 1 m/S 710 mmHg 89%
    06:00 +15°C° 0 mm 1 m/S 710 mmHg 83%
    07:00 +18°C° 0 mm 1 m/S 711 mmHg 77%
    08:00 +20°C° 0 mm 1 m/S 711 mmHg 71%
    09:00 +20°C° 0 mm 2 m/S 711 mmHg 64%
    10:00 +23°C° 0 mm 2 m/S 712 mmHg 58%
    11:00 +24°C° 0 mm 3 m/S 712 mmHg 52%
    12:00 +24°C° 0,1 mm 3 m/S 712 mmHg 51%
    13:00 +25°C° 0,1 mm 3 m/S 712 mmHg 51%
    14:00 +25°C° 0,1 mm 4 m/S 711 mmHg 50%
    15:00 +25°C° 0,2 mm 4 m/S 711 mmHg 54%
    16:00 +23°C° 0,2 mm 4 m/S 711 mmHg 58%
    17:00 +22°C° 0,2 mm 4 m/S 711 mmHg 62%
    18:00 +20°C° 0,1 mm 3 m/S 711 mmHg 69%
    19:00 +19°C° 0,1 mm 2 m/S 711 mmHg 76%
    20:00 +18°C° 0,1 mm 1 m/S 711 mmHg 83%
    21:00 +16°C° 0 mm 1 m/S 711 mmHg 85%
    22:00 +15°C° 0 mm 1 m/S 711 mmHg 86%
    23:00 +14°C° 0 mm 1 m/S 712 mmHg 88%

    26 Mai, Samstag

    Zeit Temperatur Niederschläge Wind Luftdruck Luftfeuchtigkeit
    00:00 +14°C° 0 mm 1 m/S 712 mmHg 87%
    01:00 +14°C° 0 mm 1 m/S 712 mmHg 87%
    02:00 +14°C° 0 mm 1 m/S 712 mmHg 87%
    03:00 +14°C° 0 mm 1 m/S 712 mmHg 87%
    04:00 +13°C° 0 mm 1 m/S 712 mmHg 88%
    05:00 +13°C° 0 mm 1 m/S 712 mmHg 89%
    06:00 +15°C° 0 mm 1 m/S 712 mmHg 83%
    07:00 +17°C° 0 mm 2 m/S 713 mmHg 77%
    08:00 +19°C° 0 mm 2 m/S 713 mmHg 71%
    09:00 +21°C° 0 mm 3 m/S 713 mmHg 67%
    10:00 +22°C° 0 mm 3 m/S 714 mmHg 62%
    11:00 +23°C° 0 mm 4 m/S 714 mmHg 58%
    12:00 +25°C° 0,2 mm 4 m/S 714 mmHg 58%
    13:00 +25°C° 0,2 mm 4 m/S 714 mmHg 59%
    14:00 +25°C° 0,2 mm 4 m/S 713 mmHg 59%
    15:00 +25°C° 0,5 mm 4 m/S 713 mmHg 64%
    16:00 +23°C° 0,5 mm 4 m/S 713 mmHg 69%
    17:00 +22°C° 0,5 mm 4 m/S 713 mmHg 74%
    18:00 +20°C° 0,2 mm 3 m/S 713 mmHg 80%
    19:00 +19°C° 0,2 mm 2 m/S 714 mmHg 86%
    20:00 +17°C° 0,2 mm 2 m/S 714 mmHg 92%
    21:00 +17°C° 0,1 mm 2 m/S 714 mmHg 93%
    22:00 +16°C° 0,1 mm 2 m/S 714 mmHg 94%
    23:00 +16°C° 0,1 mm 1 m/S 715 mmHg 96%

    27 Mai, Sonntag

    Zeit Temperatur Niederschläge Wind Luftdruck Luftfeuchtigkeit
    00:00 +16°C° 0 mm 1 m/S 715 mmHg 96%
    01:00 +15°C° 0 mm 1 m/S 714 mmHg 96%
    02:00 +15°C° 0 mm 1 m/S 714 mmHg 96%
    03:00 +15°C° 0 mm 2 m/S 714 mmHg 96%
    04:00 +14°C° 0 mm 2 m/S 715 mmHg 96%
    05:00 +14°C° 0 mm 2 m/S 715 mmHg 96%
    06:00 +15°C° 0 mm 2 m/S 715 mmHg 88%
    07:00 +16°C° 0 mm 2 m/S 715 mmHg 81%
    08:00 +17°C° 0 mm 2 m/S 716 mmHg 74%
    09:00 +18°C° 0 mm 3 m/S 716 mmHg 64%
    10:00 +20°C° 0 mm 3 m/S 716 mmHg 55%
    11:00 +21°C° 0 mm 3 m/S 716 mmHg 46%
    12:00 +22°C° 0 mm 3 m/S 716 mmHg 45%
    13:00 +22°C° 0 mm 4 m/S 715 mmHg 44%
    14:00 +23°C° 0 mm 4 m/S 715 mmHg 44%
    15:00 +22°C° 0 mm 4 m/S 715 mmHg 46%
    16:00 +22°C° 0 mm 4 m/S 715 mmHg 49%
    17:00 +22°C° 0 mm 4 m/S 714 mmHg 52%
    18:00 +19°C° 0 mm 3 m/S 714 mmHg 61%
    19:00 +17°C° 0 mm 2 m/S 714 mmHg 70%
    20:00 +15°C° 0 mm 2 m/S 714 mmHg 80%
    21:00 +14°C° 0 mm 2 m/S 714 mmHg 83%
    22:00 +13°C° 0 mm 1 m/S 714 mmHg 85%
    23:00 +12°C° 0 mm 1 m/S 714 mmHg 88%

    28 Mai, Montag

    Zeit Temperatur Niederschläge Wind Luftdruck Luftfeuchtigkeit
    00:00 +12°C° 0 mm 1 m/S 714 mmHg 87%
    01:00 +11°C° 0 mm 1 m/S 714 mmHg 86%
    02:00 +11°C° 0 mm 1 m/S 714 mmHg 85%
    03:00 +10°C° 0 mm 1 m/S 714 mmHg 85%
    04:00 +10°C° 0 mm 1 m/S 714 mmHg 84%
    05:00 +10°C° 0 mm 1 m/S 714 mmHg 84%
    06:00 +12°C° 0 mm 1 m/S 714 mmHg 73%
    07:00 +14°C° 0 mm 2 m/S 715 mmHg 62%
    08:00 +17°C° 0 mm 2 m/S 715 mmHg 51%
    09:00 +18°C° 0 mm 3 m/S 715 mmHg 47%
    10:00 +19°C° 0 mm 3 m/S 715 mmHg 43%
    11:00 +20°C° 0 mm 4 m/S 715 mmHg 39%
    12:00 +21°C° 0 mm 4 m/S 715 mmHg 40%
    13:00 +22°C° 0 mm 4 m/S 715 mmHg 40%
    14:00 +22°C° 0 mm 4 m/S 714 mmHg 41%
    15:00 +22°C° 0 mm 4 m/S 714 mmHg 45%
    16:00 +21°C° 0 mm 4 m/S 714 mmHg 49%
    17:00 +21°C° 0 mm 4 m/S 714 mmHg 53%
    18:00 +18°C° 0 mm 3 m/S 714 mmHg 62%
    19:00 +16°C° 0 mm 3 m/S 714 mmHg 71%
    20:00 +14°C° 0 mm 2 m/S 714 mmHg 79%
    21:00 +13°C° 0 mm 2 m/S 714 mmHg 82%
    22:00 +13°C° 0 mm 1 m/S 714 mmHg 85%
    23:00 +12°C° 0 mm 1 m/S 714 mmHg 88%
    Mehr zeigen